Regional Weather Roundup
Issued by NWS

Home | Current Version | Previous Version | Text Only | Print | Product List | Glossary On
Versions: 1 2 3 4 5 6 7 8 9 10 11 12 13 14 15 16 17 18 19 20 21 22 23 24 25 26 27 28 29 30 31 32 33 34 35 36 37 38 39 40 41 42 43 44 45 46 47 48 49 50
541
ASUS45 KBOU 221810
RWRCO

WEATHER ROUNDUP FOR COLORADO
NATIONAL WEATHER SERVICE DENVER/BOULDER CO
1100 AM MST FRI FEB 22 2019

NOTE: "FAIR" INDICATES FEW OR NO CLOUDS BELOW 12000 FEET WITH NO
SIGNIFICANT WEATHER AND/OR OBSTRUCTIONS TO VISIBILITY.

COZ001>005-013-030-031-221900-
...NORTHWEST COLORADO...

CITY           SKY/WX    TMP DP  RH WIND       PRES   REMARKS
CRAIG          CLOUDY    19  14  81 W9        29.80R WCI   8
HAYDEN         FLURRIES  20  15  81 W12       29.77R WCI   8
MEEKER         LGT SNOW  23  20  88 SW5       29.75S FOG     WCI  17
RANGELY        CLOUDY    23  17  75 CALM      29.81F
RABBIT EARS PA SNOW      18  14  86 NW7       29.66R VSB 1/2 WCI   8
STEAMBOAT SPGS CLOUDY    21  18  88 CALM      29.73S
WALDEN         CLOUDY    12   7  79 W5        29.71R WCI   4
$$

COZ006>008-011-221900-
...WEST CENTRAL VALLEYS...

CITY           SKY/WX    TMP DP  RH WIND       PRES   REMARKS
GRAND JUNCTION FLURRIES  32  29  88 CALM      29.75S
MONTROSE       CLOUDY    28  25  88 NW7       29.74F WCI  21
EAGLE          LGT SNOW  24  22  91 CALM      29.74S FOG
RIFLE          LGT SNOW  30  28  92 W6        29.74S FOG     WCI  24
DELTA          LGT SNOW  33  32  94 CALM      29.73F
NUCLA          NOT AVBL
$$

COZ017>023-064>068-221900-
...SOUTHWEST COLORADO...

CITY           SKY/WX    TMP DP  RH WIND       PRES   REMARKS
DURANGO        SNOW      30  30 100 SE7       29.71R VSB 1/2 WCI  23
CORTEZ         CLOUDY    35  28  75 VRB5      29.68S WCI  31
PAGOSA SPRINGS LGT SNOW  29  29  97 CALM      29.72F
TELLURIDE      LGT SNOW  25  21  86 CALM      29.66F VSB 3/4
WOLF CREEK PAS CLOUDY    12  12 100 MISG      29.69S
$$

COZ009-010-012-014-032>034-037-058>063-221900-
...CENTRAL COLORADO...

CITY           SKY/WX    TMP DP  RH WIND       PRES   REMARKS
ASPEN          LGT SNOW  26  20  77 N6        29.67R WCI  19
BUENA VISTA    LGT SNOW  25  19  80 CALM      29.72S VSB 1
COPPER MTN     LGT SNOW  19  10  68 SE17      29.63F WCI   4
BERTHOUD PASS  CLOUDY    10   0  61 S23G30    29.65R WCI -10
COTTONWOOD PAS LGT SNOW  21  21 100 CALM      29.69S VSB 1
GUNNISON       PTSUNNY   31  19  61 NE7       29.68S WCI  24
GRANBY         FAIR      20   8  59 CALM      29.67F
KREMMLING      CLOUDY    30  21  69 NW6       29.70F WCI  24
LEADVILLE      CLOUDY    17  14  88 S17       29.64F WCI   1
MONARCH PASS     N/A     18  14  86 MISG      29.77S
SALIDA         CLOUDY    30  25  81 CALM      29.79F
SUNLIGHT       LGT SNOW  16  12  86 CALM      29.71S VSB 1
WILKERSON PASS CLOUDY   N/A N/A N/A SW8G18    29.71S
$$

COZ069>075-221900-
...SAN LUIS VALLEY/SANGRE DE CRISTO MOUNTAINS...

CITY           SKY/WX    TMP DP  RH WIND       PRES   REMARKS
ALAMOSA        FAIR      34  21  59 S24G37    29.72F WCI  21
DEL NORTE      CLOUDY    28  20  73 CALM      29.72S
LA VETA PASS   NOT AVBL
SAGUACHE       CLOUDY    32  19  59 CALM      29.73F
$$

COZ035-036-038>040-221900-
...NORTHERN COLORADO FRONT RANGE...

CITY           SKY/WX    TMP DP  RH WIND       PRES   REMARKS
DENVER INTL AP LGT SNOW  26  24  92 E10       29.78F FOG     WCI  16
AURORA         CLOUDY    27  22  82 CALM      29.78F
FRONT RANGE AP CLOUDY    27  25  93 E3        29.80F
ERIE MUNI ARPT CLOUDY    24  23  96 NE6       29.87F FOG     WCI  17
BOULDER MUN AP CLOUDY    23  23 100 NE3       29.80F FOG
CENTENNIAL     CLOUDY    29  21  72 CALM      29.76F
BROOMFIELD     CLOUDY    23  23 100 N5        29.79F HAZE    WCI  17
FORT COLLINS   MIX PCPN  21  19  93 E5        29.84S FOG     WCI  15
LONGMONT       CLOUDY    26  24  90 CALM      29.84F FOG
$$

COZ041-046-047-076>085-087-088-221900-
...PIKES PEAK/PALMER DIVIDE AND SOUTHERN FOOTHILLS...

CITY           SKY/WX    TMP DP  RH WIND       PRES   REMARKS
COLO. SPRINGS  PTSUNNY   29  23  78 MISG      29.77F
A. F. ACADEMY  CLOUDY    26  20  77 S6        29.75S WCI  19
SCHRIEVER AFB  NOT AVBL
CHEYENNE MTN   FAIR      28  23  80 SE9       29.69F WCI  19
ELLICOTT         N/A    N/A N/A N/A S7        29.77S
FALCON         PTSUNNY   31  22  68 SE10      29.76S WCI  22
FORT CARSON    CLOUDY    31  22  69 S8        29.76F WCI  23
LIMON          CLOUDY    27  27 100 S13       29.80F WCI  16
MONUMENT HILL  FAIR      27  23  86 SE12      29.75S WCI  16
CANON CITY     NOT AVBL
WALSENBURG     NOT AVBL
TRINIDAD       FAIR      44  24  45 NW9       29.75F
$$

COZ042>045-048>051-090-091-221900-
...NORTHEAST COLORADO...

CITY           SKY/WX    TMP DP  RH WIND       PRES   REMARKS
GREELEY ARPT   CLOUDY    22  20  92 SE6       29.86F WCI  14
AKRON          FOG       23  22  96 E8        29.85F VSB<1/4 WCI  14
BURLINGTON     CLOUDY    35  31  85 S18       29.87F WCI  24
WRAY           FOG       28  28 100 E12       29.92S VSB<1/4 WCI  18
YUMA           FOG       25  23  93 E3        29.88F VSB<1/4
STERLING       CLOUDY    23  23 100 N6        29.89F FOG     WCI  16
HOLYOKE        FOG       30  28  93 SE6       29.92S VSB<1/4 WCI  24
FORT MORGAN      N/A     22  20  93 E6        29.87F FOG     WCI  15
$$

COZ086-089-092>099-221900-
...SOUTHEAST COLORADO...

CITY           SKY/WX    TMP DP  RH WIND       PRES   REMARKS
PUEBLO         CLOUDY    37  25  61 VRB3      29.80F
LA JUNTA       PTSUNNY   38  27  64 NE7       29.83F
LAMAR          FAIR      43  31  62 SE22G29   29.83F
SPRINGFIELD      N/A     35  31  85 S17       29.86F WCI  25
$$




USA.gov is the U.S. government's official web portal to all federal, state and local government web resources and services.